This is the latest recevied weather packets stored in our database for station/object DL9GJ-6. If no packets are shown the sender has not sent any weather packets the latest 10 day(s).
| Time | Temp. | Humidity | Pressure | Rain* | Wind** | Luminosity | Snow |
|---|---|---|---|---|---|---|---|
| 1777987929 | 17.22° C | 73% | 1006.3 hPa | 0 mm | - | 312 W/m² | - |
| 1777987581 | 17.22° C | 71% | 1006.4 hPa | 0 mm | - | 297 W/m² | - |
| 1777987221 | 17.22° C | 72% | 1006.5 hPa | 0 mm | - | 281 W/m² | - |
| 1777986862 | 17.22° C | 75% | 1006.7 hPa | 0.25 mm | - | 288 W/m² | - |
| 1777986854 | 17.22° C | 75% | 1006.7 hPa | 0.25 mm | - | 288 W/m² | - |
| 1777986502 | 17.22° C | 74% | 1006.8 hPa | 0.25 mm | - | 304 W/m² | - |
| 1777986489 | 17.22° C | 74% | 1006.8 hPa | 0.25 mm | - | 304 W/m² | - |
| 1777986141 | 16.67° C | 73% | 1006.9 hPa | 0.25 mm | - | 333 W/m² | - |
| 1777985782 | 16.67° C | 74% | 1006.9 hPa | 0.25 mm | - | 298 W/m² | - |
| 1777985421 | 16.67° C | 73% | 1006.9 hPa | 0.25 mm | - | 273 W/m² | - |
| 1777985409 | 16.67° C | 73% | 1006.9 hPa | 0.25 mm | - | 273 W/m² | - |
| 1777985062 | 16.67° C | 75% | 1006.9 hPa | 0.25 mm | - | 277 W/m² | - |
| 1777984701 | 16.67° C | 77% | 1006.9 hPa | 0.25 mm | - | 272 W/m² | - |
| 1777984342 | 16.67° C | 79% | 1007 hPa | 0.25 mm | - | 282 W/m² | - |
| 1777983981 | 16.67° C | 80% | 1007.1 hPa | 0.25 mm | - | 300 W/m² | - |
| 1777983621 | 16.67° C | 78% | 1007 hPa | 0.25 mm | - | 298 W/m² | - |
| 1777983261 | 17.22° C | 73% | 1007.1 hPa | 0 mm | - | 136 W/m² | - |
| 1777982901 | 17.22° C | 70% | 1007.1 hPa | 0 mm | - | 129 W/m² | - |
| 1777982541 | 17.78° C | 68% | 1007.1 hPa | 0 mm | - | 162 W/m² | - |
| 1777982183 | 17.78° C | 68% | 1006.9 hPa | 0 mm | - | 169 W/m² | - |
| 1777981823 | 17.78° C | 66% | 1006.9 hPa | 0 mm | - | 175 W/m² | - |
| 1777981461 | 18.33° C | 69% | 1006.8 hPa | 0 mm | - | 258 W/m² | - |
| 1777981102 | 18.33° C | 68% | 1006.8 hPa | 0 mm | - | 330 W/m² | - |
| 1777980741 | 18.33° C | 69% | 1006.8 hPa | 0 mm | - | 338 W/m² | - |
| 1777980381 | 17.78° C | 70% | 1006.7 hPa | 0 mm | - | 289 W/m² | - |
* Rain latest hour (hover to see other rain measurements)
** Current wind speed in m/s (hover to see current wind gust speed)